Volver al catálogo

STARLINK-33617

ActivoComunicacionesVLEO
NORAD 63373·PAYLOAD·🇺🇸 United States

Lanzado Mar 26, 2025 desde Vandenberg Space Force Base

Loading…

Próximos Pases (próximas 24 horas)

TLE

ActualizadoSource: CelesTrak SupGP

Época: Sep 15, 2026, 02:46 UTC

1 63373C 25063L   26258.11576389 -.00035663  00000+0 -10536-2 0  2580
2 63373  53.1578 247.1507 0001423  92.4280  70.5845 15.34411500    18

Sigue STARLINK-33617 en tiempo real con AllMySat

Download on the App Store